Stations météo

réclame
Mon MeteoGroup
Llanes, Espagne (8016): Température de l'air & dewpoint: 09.12.2017 18:00:00 - 15.12.2017 18:00:00 (CET)Llanes, Espagne (8016): Vitesse du vent & gusts: 09.12.2017 18:00:00 - 15.12.2017 18:00:00 (CET)Llanes, Espagne (8016): Direction du vent: 09.12.2017 18:00:00 - 15.12.2017 18:00:00 (CET)Llanes, Espagne (8016): reduced air pressure: 09.12.2017 18:00:00 - 15.12.2017 18:00:00 (CET)Llanes, Espagne (8016): visibility: 09.12.2017 18:00:00 - 15.12.2017 18:00:00 (CET)Llanes, Espagne (8016): Ensoleillement: 09.12.2017 18:00:00 - 15.12.2017 18:00:00 (CET)Llanes, Espagne (8016): Quantités de précipitations: 09.12.2017 18:00:00 - 15.12.2017 18:00:00 (CET)
Date & Time tt [°C] td [°C] ff [km/h] ff [knt] fx [km/h] fx [knt] dd ppp [hPa] vv [km] sd [min] rr [mm]
15.12.2017 18:00:00 9,6 5,1 20 11 58 31 W 1014,9 20 0 0,4
15.12.2017 17:00:00 9,6 5,9 17 9 57 31 W 1014,5 20 0 2,2
15.12.2017 16:00:00 10,0 5,5 18 10 61 33 W 1013,6 20 0 0,6
15.12.2017 15:00:00 10,2 5,6 17 9 50 27 W 1013,6 20 13 0,6
15.12.2017 14:00:00 9,8 5,0 22 12 50 27 W 1013,6 20 20 0,8
15.12.2017 13:00:00 11,9 5,3 17 9 51 28 W 1013,4 20 56 -
15.12.2017 12:00:00 10,0 4,8 19 10 53 29 W 1014,0 17 2 0,2
15.12.2017 11:00:00 9,5 5,1 21 11 64 35 W 1014,2 19 26 0,2
15.12.2017 10:00:00 8,9 5,3 15 8 43 23 W 1013,6 20 20 0,0
15.12.2017 09:00:00 7,9 4,6 18 10 54 29 WSW 1013,5 10 0 1,6
15.12.2017 08:00:00 8,2 4,8 14 8 49 26 W 1013,7 4,0 0 3,8
15.12.2017 07:00:00 8,5 4,8 16 9 51 27 W 1012,3 11 0 -
15.12.2017 06:00:00 8,5 5,6 15 8 62 34 W 1012,7 11 0 5,6
15.12.2017 05:00:00 9,9 6,8 30 16 80 43 NW 1012,4 2,9 0 2,4
15.12.2017 04:00:00 13,5 1,1 30 16 59 32 WNW 1010,9 20 0 0,0
15.12.2017 03:00:00 12,3 3,9 21 11 58 31 W 1010,2 20 0 0,0
15.12.2017 02:00:00 12,2 3,6 12 6 58 31 W 1011,0 20 0 0,0
15.12.2017 01:00:00 13,0 3,6 23 13 63 34 W 1012,2 20 0 -
15.12.2017 00:00:00 13,5 2,5 25 14 58 31 W 1012,3 20 0 0,0
14.12.2017 23:00:00 13,0 3,4 20 11 51 28 W 1012,2 20 0 0,0
14.12.2017 22:00:00 12,5 5,9 17 9 38 21 WNW 1012,7 20 0 0,0
14.12.2017 21:00:00 12,8 7,3 15 8 46 25 WNW 1012,6 16 0 0,0
14.12.2017 20:00:00 13,2 8,1 26 14 57 31 W 1012,4 20 0 0,0
14.12.2017 19:00:00 13,2 9,0 29 16 72 39 WNW 1012,5 12 0 -
14.12.2017 18:00:00 13,3 10,0 23 12 44 24 W 1012,8 11 0 0,0
14.12.2017 17:00:00 13,3 10,3 21 11 52 28 WNW 1013,2 8 0 0,0
14.12.2017 16:00:00 13,5 10,5 25 14 52 28 WNW 1013,4 8 0 0,0
14.12.2017 15:00:00 13,7 10,5 27 15 48 26 WNW 1014,0 9 0 0,0
14.12.2017 14:00:00 14,7 11,1 14 8 31 17 WNW 1014,5 10 15 0,0
14.12.2017 13:00:00 13,9 10,6 17 9 35 19 WNW 1015,7 13 8 -
14.12.2017 12:00:00 14,4 11,3 8 5 27 14 WNW 1016,1 7 14 0,0
14.12.2017 11:00:00 13,0 10,4 15 8 36 19 WNW 1016,8 9 2 0,0
14.12.2017 10:00:00 12,5 10,2 10 5 31 17 WNW 1016,9 20 0 0,0
14.12.2017 09:00:00 12,3 9,8 14 8 39 21 WNW 1017,6 5 0 0,6
14.12.2017 08:00:00 12,2 9,8 11 6 39 21 W 1016,9 17 0 1,6
14.12.2017 07:00:00 12,0 9,9 12 7 38 20 W 1018,0 11 0 -
14.12.2017 06:00:00 12,3 10,2 9 5 30 16 W 1018,0 7 0 2,4
14.12.2017 05:00:00 12,6 10,2 16 9 37 20 W 1018,5 4,4 0 1,2
14.12.2017 04:00:00 12,9 10,0 12 6 32 18 W 1018,6 16 0 1,0
14.12.2017 03:00:00 13,2 10,0 13 7 40 22 W 1018,7 9 0 0,2
14.12.2017 02:00:00 13,4 10,8 18 10 48 26 W 1018,7 20 0 0,2
14.12.2017 01:00:00 13,4 11,2 18 10 71 38 W 1019,1 16 0 -
14.12.2017 00:00:00 13,9 11,4 27 14 62 34 WNW 1018,6 15 0 0,2
13.12.2017 23:00:00 14,2 11,6 26 14 52 28 WNW 1018,7 12 0 0,0
13.12.2017 22:00:00 15,0 11,6 27 15 47 26 WNW 1018,4 17 0 0,0
13.12.2017 21:00:00 15,6 11,2 22 12 51 27 WNW 1017,4 20 0 0,0
13.12.2017 20:00:00 17,9 9,6 19 10 49 26 W 1017,0 20 0 0,0
13.12.2017 19:00:00 17,5 9,4 16 9 43 23 W 1016,6 20 0 -
13.12.2017 18:00:00 16,8 9,7 19 10 48 26 WSW 1016,2 20 0 0,0
13.12.2017 17:00:00 14,6 9,4 6 3 14 7 WSW 1016,5 20 0 0,0
13.12.2017 16:00:00 14,7 10,5 1 1 11 6 SSW 1015,9 5 0 0,0
13.12.2017 15:00:00 15,1 10,0 1 1 5 3 NNE 1016,5 10 3 0,0
13.12.2017 14:00:00 15,3 10,0 0 0 5 3 N 1016,9 8 14 0,0
13.12.2017 13:00:00 14,5 9,3 0 0 9 5 N 1017,9 8 18 -
13.12.2017 12:00:00 14,6 9,6 3 2 13 7 NW 1018,6 4,7 0 0,0
13.12.2017 11:00:00 13,2 8,7 3 1 18 10 WSW 1019,1 20 26 0,0
13.12.2017 10:00:00 11,0 7,0 3 2 22 12 W 1019,5 20 0 0,0
13.12.2017 09:00:00 10,3 6,2 7 4 16 9 SW 1019,1 20 0 0,0
13.12.2017 08:00:00 11,1 6,7 8 4 21 12 SSW 1019,5 20 0 0,0
13.12.2017 07:00:00 11,5 7,0 8 4 24 13 SW 1019,3 20 0 -
13.12.2017 06:00:00 12,1 7,4 5 3 14 7 ESE 1018,6 7 0 0,0
13.12.2017 05:00:00 12,0 7,1 4 2 19 10 SW 1018,4 7 0 0,0
13.12.2017 04:00:00 11,1 5,6 5 3 20 11 WSW 1019,1 20 0 0,0
13.12.2017 03:00:00 9,7 3,2 2 1 16 9 W 1019,3 20 0 0,0
13.12.2017 02:00:00 9,4 2,9 4 2 21 11 SW 1019,5 20 0 0,0
13.12.2017 01:00:00 9,1 2,5 7 4 24 13 WSW 1020,1 20 0 -
13.12.2017 00:00:00 10,0 1,7 6 3 23 13 SW 1020,5 20 0 0,0
12.12.2017 23:00:00 8,9 1,7 8 5 23 13 SW 1020,6 20 0 0,0
12.12.2017 22:00:00 9,1 1,7 8 4 24 13 WSW 1020,5 20 0 0,0
12.12.2017 21:00:00 9,2 2,1 6 4 24 13 W 1020,1 20 0 0,0
12.12.2017 20:00:00 9,7 2,1 7 4 23 12 W 1019,4 20 0 0,0
12.12.2017 19:00:00 10,0 2,3 8 4 29 16 W 1020,0 20 0 -
12.12.2017 18:00:00 10,7 2,9 10 5 27 14 W 1019,7 20 0 0,0
12.12.2017 17:00:00 11,3 3,4 9 5 29 15 W 1018,7 20 0 0,0
12.12.2017 16:00:00 11,7 2,9 14 7 30 16 W 1018,3 20 8 0,0
12.12.2017 15:00:00 12,5 2,7 16 9 38 21 W 1018,1 20 50 0,0
12.12.2017 14:00:00 12,7 4,1 14 7 34 18 WNW 1018,3 20 60 0,0
12.12.2017 13:00:00 11,8 3,6 14 8 48 26 WNW 1018,0 20 60 -
12.12.2017 12:00:00 11,4 3,6 11 6 34 18 W 1017,9 20 19 0,0
12.12.2017 11:00:00 10,7 3,4 10 6 36 19 W 1017,2 20 58 0,0
12.12.2017 10:00:00 9,1 3,2 13 7 50 27 W 1016,2 20 51 0,0
12.12.2017 09:00:00 7,7 3,2 16 9 37 20 W 1015,4 20 0 0,2
12.12.2017 08:00:00 7,3 3,2 16 8 43 23 W 1014,9 20 0 0,0
12.12.2017 07:00:00 6,5 2,9 14 8 40 22 W 1014,2 20 0 -
12.12.2017 06:00:00 6,5 3,0 13 7 40 21 W 1013,6 20 0 3,2
12.12.2017 05:00:00 7,1 3,0 8 4 39 21 W 1013,6 6 0 1,4
12.12.2017 04:00:00 7,9 3,2 8 4 26 14 WNW 1011,6 20 0 0,0
12.12.2017 03:00:00 8,4 3,2 9 5 43 23 NNW 1010,3 14 0 2,4
12.12.2017 02:00:00 8,3 2,9 17 9 35 19 W 1009,9 20 0 0,0
12.12.2017 01:00:00 7,7 2,1 15 8 35 19 W 1009,3 20 0 -
12.12.2017 00:00:00 8,1 1,9 16 8 50 27 W 1009,0 20 0 0,0
11.12.2017 23:00:00 8,6 2,5 19 10 56 30 W 1008,0 20 0 0,0
11.12.2017 22:00:00 8,8 2,3 14 8 49 27 W 1006,5 20 0 0,0
11.12.2017 21:00:00 8,2 2,7 18 10 45 24 W 1005,1 20 0 0,2
11.12.2017 20:00:00 6,9 2,7 18 10 61 33 WSW 1003,7 20 0 2,2
11.12.2017 19:00:00 7,3 2,7 18 10 60 33 W 1002,2 20 0 -
11.12.2017 18:00:00 7,5 2,9 22 12 60 32 W 1000,7 20 0 1,6
11.12.2017 17:00:00 8,1 3,9 20 11 62 33 W 998,9 20 0 1,0
11.12.2017 16:00:00 7,2 3,9 19 10 61 33 W 997,8 5 0 1,8
11.12.2017 15:00:00 7,6 3,9 16 8 47 26 W 996,5 10 0 1,8
11.12.2017 14:00:00 8,0 4,5 22 12 56 31 W 995,4 9 15 1,6
11.12.2017 13:00:00 8,5 4,5 18 10 61 33 W 993,9 20 20 -
11.12.2017 12:00:00 10,1 4,3 20 11 63 34 W 992,5 20 18 0,6
11.12.2017 11:00:00 9,0 3,4 24 13 57 31 W 991,8 20 16 0,6
11.12.2017 10:00:00 10,0 3,4 18 10 47 25 W 990,2 20 13 0,0
11.12.2017 09:00:00 9,2 2,7 14 7 56 31 WNW 989,0 20 0 0,0
11.12.2017 08:00:00 8,1 3,6 17 9 60 32 W 988,3 20 0 0,0
11.12.2017 07:00:00 9,9 3,6 33 18 69 37 WNW 988,3 20 0 -
11.12.2017 06:00:00 9,2 3,6 19 10 67 36 W 986,0 20 0 0,2
11.12.2017 05:00:00 8,9 4,6 16 9 59 32 W 986,4 20 0 0,6
11.12.2017 04:00:00 9,5 4,6 20 11 55 30 W 985,6 20 0 0,2
11.12.2017 03:00:00 9,7 5,9 21 11 54 29 W 985,0 20 0 0,4
11.12.2017 02:00:00 10,7 7,0 22 12 53 28 WNW 983,1 20 0 0,0
11.12.2017 01:00:00 10,5 7,8 20 11 69 37 W 982,8 20 0 -
11.12.2017 00:00:00 10,3 8,1 20 11 56 30 W 983,3 8 0 7,6
10.12.2017 23:00:00 10,9 8,8 16 9 82 45 W 984,5 6 0 5,2
10.12.2017 22:00:00 12,5 10,2 9 5 25 13 SE 980,6 7 0 0,2
10.12.2017 21:00:00 12,7 10,4 11 6 21 11 ESE 983,7 9 0 0,6
10.12.2017 20:00:00 12,8 10,3 10 5 29 16 ESE 986,9 9 0 0,8
10.12.2017 19:00:00 13,0 10,4 9 5 26 14 SE 989,1 10 0 -
10.12.2017 18:00:00 13,2 10,5 14 7 27 15 ESE 991,5 14 0 0,6
10.12.2017 17:00:00 13,3 10,6 16 9 32 17 WNW 995,4 15 0 4,0
10.12.2017 16:00:00 12,9 10,6 9 5 24 13 W 997,7 7 0 2,8
10.12.2017 15:00:00 13,0 10,5 8 5 50 27 W 999,2 7 0 2,4
10.12.2017 14:00:00 13,4 10,8 19 10 55 30 W 1000,8 9 0 2,6
10.12.2017 13:00:00 15,4 11,8 5 3 24 13 SSW 1002,1 6 0 -
10.12.2017 12:00:00 15,4 10,8 8 5 20 11 NE 1003,2 20 0 0,0
10.12.2017 11:00:00 16,2 10,5 2 1 32 18 SE 1003,6 17 0 0,0
10.12.2017 10:00:00 17,5 9,2 13 7 38 20 NW 1004,0 20 0 0,0
10.12.2017 09:00:00 18,2 7,8 8 4 27 15 W 1004,9 20 0 0,0
10.12.2017 08:00:00 19,1 7,1 14 7 33 18 WNW 1005,3 20 0 0,0
10.12.2017 07:00:00 17,8 7,3 10 5 31 17 W 1006,4 20 0 -
10.12.2017 06:00:00 15,4 9,0 3 2 15 8 N 1007,8 17 0 0,0
10.12.2017 05:00:00 15,2 9,0 5 3 16 9 SSE 1009,0 10 0 0,0
10.12.2017 04:00:00 15,9 8,4 5 3 18 10 SSW 1010,4 20 0 0,0
10.12.2017 03:00:00 16,6 8,0 8 4 30 16 WNW 1011,2 20 0 0,0
10.12.2017 02:00:00 17,4 7,4 13 7 36 19 W 1012,3 20 0 0,0
10.12.2017 01:00:00 17,7 7,4 18 10 37 20 WNW 1013,2 20 0 -
10.12.2017 00:00:00 17,6 7,8 21 11 46 25 WNW 1013,8 20 0 0,0
09.12.2017 23:00:00 17,9 8,1 24 13 54 29 W 1014,5 20 0 0,0
09.12.2017 22:00:00 17,6 8,9 26 14 54 29 W 1014,8 20 0 0,0
09.12.2017 21:00:00 17,4 9,6 25 13 54 29 W 1015,4 20 0 0,0
09.12.2017 20:00:00 17,2 10,0 27 15 61 33 W 1015,7 20 0 0,0
09.12.2017 19:00:00 16,1 10,6 22 12 51 27 W 1016,3 20 0 -
09.12.2017 18:00:00 14,5 11,4 19 10 49 26 W 1016,7 20 0 0,2

tt = Température de l'air
td = dewpoint
ff = Vitesse du vent
fx = gusts
dd = Direction du vent
ppp = reduced air pressure
vv = visibility
sd = Ensoleillement
rr = Quantités de précipitations

stations d'obs. à proximité